QPF
0.00 0.00 0.00 0.00 0.01 0.01 0.01 0.01 0.02 0.02 0.02 0.02 0.03 0.03 0.03 0.02 0.02 0.01 0.02 0.02 0.04 0.06 0.05 0.04 0.03 0.01 0.01 0.01 0.01 0.01 0.01 0.01 0.01 0.02 0.04 0.04 0.03 0.03 0.02 0.02 0.02 0.01 0.02
0.00 0.00 0.00 0.00 0.00 0.01 0.01 0.01 0.02 0.03 0.03 0.03 0.02 0.02 0.03 0.03 0.03 0.02 0.02 0.02 0.02 0.04 0.05 0.05 0.04 0.02 0.01 0.01 0.01 0.01 0.01 0.01 0.02 0.02 0.02 0.04 0.04 0.03 0.02 0.02 0.02 0.02 0.01
0.00 0.00 0.00 0.00 0.00 0.01 0.01 0.02 0.02 0.03 0.03 0.03 0.03 0.03 0.02 0.02 0.03 0.03 0.02 0.02 0.02 0.03 0.03 0.04 0.05 0.04 0.01 0.01 0.01 0.01 0.01 0.01 0.02 0.03 0.03 0.03 0.04 0.03 0.02 0.02 0.02 0.02 0.02
0.00 0.00 0.00 0.01 0.01 0.01 0.01 0.03 0.04 0.03 0.04 0.04 0.04 0.04 0.03 0.03 0.03 0.03 0.02 0.02 0.03 0.03 0.02 0.02 0.03 0.04 0.03 0.01 0.01 0.01 0.01 0.01 0.02 0.02 0.03 0.04 0.03 0.03 0.03 0.02 0.02 0.02 0.03
0.00 0.00 0.01 0.02 0.02 0.02 0.03 0.03 0.04 0.04 0.03 0.03 0.03 0.03 0.03 0.03 0.03 0.03 0.03 0.03 0.02 0.02 0.02 0.02 0.01 0.02 0.02 0.02 0.01 0.01 0.01 0.01 0.01 0.02 0.02 0.02 0.02 0.02 0.02 0.02 0.02 0.02 0.03
0.00 0.01 0.01 0.02 0.02 0.02 0.03 0.03 0.04 0.05 0.05 0.04 0.03 0.02 0.02 0.02 0.02 0.03 0.03 0.02 0.02 0.02 0.01 0.01 0.01 0.01 0.01 0.01 0.01 0.01 0.00 0.00 0.01 0.01 0.01 0.02 0.03 0.02 0.02 0.02 0.01 0.01 0.02
0.01 0.01 0.02 0.02 0.03 0.03 0.03 0.03 0.03 0.03 0.04 0.03 0.02 0.02 0.02 0.02 0.02 0.02 0.02 0.02 0.02 0.01 0.01 0.01 0.01 0.01 0.01 0.01 0.01 0.01 0.01 0.01 0.00 0.00 0.00 0.01 0.02 0.02 0.02 0.02 0.02 0.02 0.02
0.01 0.01 0.01 0.02 0.02 0.03 0.03 0.03 0.02 0.02 0.02 0.02 0.02 0.02 0.02 0.02 0.03 0.03 0.02 0.02 0.01 0.01 0.01 0.01 0.00 0.00 0.00 0.01 0.01 0.01 0.01 0.00 0.00 0.00 0.00 0.01 0.01 0.01 0.02 0.02 0.02 0.03 0.03
0.01 0.01 0.01 0.01 0.02 0.02 0.02 0.03 0.02 0.02 0.01 0.01 0.02 0.02 0.02 0.02 0.02 0.02 0.02 0.02 0.01 0.00 0.00 0.00 0.00 0.00 0.00 0.00 0.01 0.01 0.01 0.01 0.00 0.00 0.01 0.01 0.01 0.01 0.01 0.02 0.02 0.03 0.04
0.01 0.01 0.01 0.01 0.01 0.01 0.02 0.02 0.02 0.02 0.01 0.01 0.02 0.02 0.02 0.02 0.02 0.01 0.01 0.01 0.01 0.00 0.00 0.00 0.00 0.01 0.01 0.00 0.01 0.01 0.01 0.00 0.00 0.00 0.01 0.01 0.01 0.01 0.01 0.01 0.02 0.03 0.05
0.01 0.01 0.01 0.01 0.01 0.01 0.01 0.02 0.02 0.02 0.02 0.02 0.02 0.02 0.02 0.02 0.01 0.01 0.01 0.00 0.00 0.00 0.00 0.00 0.00 0.00 0.00 0.01 0.01 0.01 0.01 0.01 0.00 0.00 0.00 0.00 0.01 0.01 0.01 0.01 0.02 0.03 0.05
0.01 0.02 0.02 0.02 0.02 0.02 0.02 0.02 0.02 0.02 0.02 0.02 0.02 0.03 0.03 0.02 0.01 0.01 0.00 0.00 0.00 0.00 0.00 0.00 0.00 0.00 0.00 0.00 0.01 0.01 0.01 0.01 0.01 0.00 0.01 0.01 0.01 0.01 0.01 0.02 0.02 0.03 0.04
0.01 0.01 0.01 0.01 0.01 0.01 0.02 0.02 0.02 0.03 0.03 0.03 0.03 0.03 0.02 0.02 0.01 0.01 0.00 0.01 0.01 0.01 0.01 0.01 0.01 0.01 0.00 0.00 0.01 0.01 0.01 0.01 0.01 0.01 0.01 0.01 0.01 0.01 0.02 0.02 0.03 0.04 0.04
0.01 0.01 0.01 0.01 0.01 0.01 0.01 0.01 0.02 0.02 0.02 0.02 0.03 0.03 0.03 0.03 0.02 0.01 0.01 0.01 0.01 0.01 0.02 0.02 0.02 0.01 0.01 0.01 0.01 0.01 0.02 0.02 0.02 0.01 0.01 0.01 0.02 0.02 0.02 0.03 0.03 0.04 0.04
0.01 0.01 0.01 0.01 0.01 0.01 0.01 0.01 0.01 0.02 0.02 0.02 0.02 0.02 0.03 0.03 0.03 0.02 0.02 0.02 0.01 0.01 0.01 0.01 0.02 0.01 0.02 0.01 0.01 0.02 0.02 0.02 0.02 0.02 0.02 0.02 0.03 0.03 0.03 0.03 0.04 0.05 0.05
0.01 0.01 0.01 0.02 0.02 0.01 0.01 0.01 0.02 0.02 0.02 0.02 0.02 0.02 0.03 0.03 0.03 0.02 0.02 0.01 0.01 0.01 0.01 0.01 0.02 0.02 0.01 0.02 0.02 0.02 0.02 0.02 0.02 0.03 0.03 0.03 0.03 0.03 0.03 0.05 0.05 0.05 0.05
0.02 0.02 0.02 0.02 0.02 0.02 0.02 0.02 0.02 0.02 0.02 0.02 0.02 0.02 0.02 0.02 0.02 0.02 0.01 0.01 0.01 0.01 0.01 0.02 0.02 0.02 0.02 0.03 0.03 0.03 0.03 0.03 0.03 0.02 0.02 0.02 0.02 0.02 0.03 0.04 0.05 0.05 0.05
0.01 0.02 0.02 0.02 0.02 0.03 0.03 0.02 0.02 0.03 0.02 0.02 0.02 0.02 0.02 0.02 0.02 0.01 0.01 0.01 0.01 0.01 0.02 0.02 0.02 0.03 0.03 0.03 0.03 0.03 0.03 0.03 0.03 0.02 0.02 0.02 0.02 0.02 0.02 0.03 0.04 0.04 0.04
0.01 0.01 0.01 0.01 0.02 0.03 0.03 0.03 0.03 0.03 0.02 0.02 0.02 0.02 0.02 0.02 0.02 0.02 0.01 0.01 0.01 0.01 0.01 0.01 0.01 0.02 0.02 0.03 0.04 0.04 0.03 0.03 0.02 0.02 0.02 0.02 0.02 0.03 0.03 0.04 0.04 0.03 0.04
0.01 0.01 0.01 0.01 0.01 0.01 0.02 0.02 0.02 0.02 0.02 0.02 0.02 0.02 0.02 0.01 0.01 0.02 0.01 0.01 0.01 0.01 0.01 0.01 0.01 0.02 0.02 0.03 0.03 0.03 0.03 0.02 0.02 0.02 0.02 0.02 0.02 0.02 0.03 0.04 0.03 0.02 0.02
0.01 0.01 0.01 0.01 0.01 0.01 0.01 0.01 0.01 0.01 0.01 0.01 0.01 0.02 0.02 0.01 0.02 0.02 0.02 0.01 0.01 0.01 0.01 0.01 0.01 0.02 0.02 0.02 0.02 0.02 0.02 0.02 0.01 0.01 0.01 0.01 0.02 0.02 0.03 0.03 0.03 0.02 0.02
0.01 0.01 0.01 0.01 0.01 0.01 0.01 0.01 0.01 0.01 0.02 0.01 0.01 0.02 0.02 0.02 0.01 0.02 0.02 0.02 0.02 0.02 0.02 0.02 0.02 0.02 0.02 0.02 0.01 0.01 0.02 0.02 0.02 0.01 0.01 0.01 0.02 0.02 0.02 0.02 0.02 0.02 0.02
0.01 0.01 0.01 0.01 0.01 0.01 0.01 0.01 0.01 0.01 0.01 0.01 0.01 0.01 0.02 0.01 0.01 0.01 0.02 0.01 0.01 0.02 0.02 0.02 0.02 0.02 0.02 0.02 0.02 0.01 0.01 0.01 0.01 0.01 0.01 0.01 0.02 0.02 0.01 0.01 0.01 0.01 0.01
0.01 0.01 0.01 0.01 0.01 0.01 0.01 0.01 0.01 0.01 0.01 0.01 0.01 0.01 0.01 0.01 0.01 0.01 0.01 0.01 0.01 0.01 0.01 0.01 0.01 0.01 0.02 0.02 0.02 0.02 0.02 0.01 0.01 0.01 0.01 0.01 0.01 0.01 0.01 0.01 0.01 0.01 0.01
0.01 0.01 0.01 0.01 0.01 0.01 0.01 0.01 0.01 0.01 0.01 0.01 0.01 0.01 0.01 0.01 0.01 0.01 0.01 0.01 0.01 0.01 0.02 0.02 0.02 0.02 0.01 0.01 0.02 0.03 0.02 0.02 0.02 0.02 0.02 0.01 0.01 0.01 0.01 0.01 0.01 0.01 0.01
0.01 0.01 0.01 0.01 0.01 0.01 0.01 0.01 0.01 0.01 0.01 0.01 0.01 0.01 0.01 0.01 0.01 0.01 0.01 0.01 0.01 0.02 0.02 0.02 0.02 0.02 0.02 0.03 0.03 0.03 0.03 0.03 0.03 0.03 0.02 0.01 0.01 0.01 0.01 0.01 0.01 0.02 0.02
MSLP
1012.98 1013.38 1013.86 1014.43 1015.06 1015.71 1016.35 1016.94 1017.46 1017.91 1018.29 1018.64 1018.98 1019.33 1019.72 1020.15 1020.60 1021.04 1021.45 1021.78 1022.04 1022.21 1022.32 1022.39 1022.44 1022.50 1022.58 1022.67 1022.74 1022.76 1022.70 1022.53 1022.24 1021.84 1021.37 1020.88 1020.41 1020.01 1019.71 1019.52 1019.42 1019.36 1019.32
1014.80 1014.96 1015.18 1015.47 1015.84 1016.26 1016.71 1017.15 1017.56 1017.94 1018.29 1018.64 1019.00 1019.40 1019.86 1020.36 1020.88 1021.39 1021.85 1022.23 1022.50 1022.68 1022.76 1022.80 1022.81 1022.84 1022.90 1022.98 1023.07 1023.12 1023.11 1022.99 1022.75 1022.41 1021.98 1021.51 1021.05 1020.64 1020.32 1020.11 1019.98 1019.90 1019.83
1016.95 1016.82 1016.73 1016.72 1016.79 1016.96 1017.19 1017.47 1017.77 1018.07 1018.39 1018.73 1019.11 1019.55 1020.05 1020.61 1021.19 1021.75 1022.25 1022.65 1022.94 1023.10 1023.16 1023.16 1023.13 1023.12 1023.15 1023.22 1023.32 1023.40 1023.44 1023.39 1023.23 1022.96 1022.59 1022.17 1021.73 1021.33 1021.00 1020.75 1020.57 1020.43 1020.29
1019.31 1018.91 1018.51 1018.18 1017.97 1017.89 1017.92 1018.04 1018.23 1018.46 1018.73 1019.05 1019.42 1019.87 1020.39 1020.96 1021.56 1022.14 1022.64 1023.05 1023.32 1023.45 1023.47 1023.42 1023.34 1023.28 1023.28 1023.33 1023.44 1023.55 1023.65 1023.67 1023.60 1023.41 1023.12 1022.76 1022.37 1021.98 1021.64 1021.34 1021.10 1020.88 1020.64
1021.77 1021.11 1020.44 1019.86 1019.41 1019.12 1018.98 1018.96 1019.05 1019.20 1019.41 1019.68 1020.02 1020.43 1020.91 1021.45 1022.01 1022.56 1023.03 1023.40 1023.63 1023.72 1023.69 1023.58 1023.45 1023.34 1023.29 1023.32 1023.42 1023.56 1023.70 1023.79 1023.79 1023.69 1023.48 1023.19 1022.84 1022.48 1022.12 1021.79 1021.47 1021.16 1020.80
1024.15 1023.32 1022.46 1021.69 1021.08 1020.64 1020.38 1020.26 1020.26 1020.33 1020.46 1020.65 1020.90 1021.22 1021.61 1022.06 1022.54 1023.01 1023.41 1023.71 1023.88 1023.91 1023.82 1023.65 1023.46 1023.30 1023.21 1023.20 1023.28 1023.43 1023.59 1023.72 1023.79 1023.75 1023.62 1023.39 1023.09 1022.74 1022.38 1022.01 1021.63 1021.23 1020.77
1026.32 1025.40 1024.45 1023.60 1022.90 1022.39 1022.06 1021.87 1021.80 1021.79 1021.82 1021.90 1022.02 1022.21 1022.46 1022.77 1023.12 1023.47 1023.77 1023.98 1024.07 1024.04 1023.89 1023.67 1023.43 1023.22 1023.08 1023.03 1023.08 1023.20 1023.36 1023.50 1023.59 1023.60 1023.50 1023.32 1023.05 1022.74 1022.38 1021.99 1021.56 1021.09 1020.55
1028.17 1027.25 1026.31 1025.46 1024.76 1024.25 1023.90 1023.67 1023.52 1023.42 1023.34 1023.28 1023.25 1023.27 1023.35 1023.50 1023.69 1023.90 1024.08 1024.20 1024.22 1024.13 1023.94 1023.68 1023.40 1023.15 1022.96 1022.87 1022.86 1022.94 1023.05 1023.16 1023.24 1023.24 1023.16 1023.00 1022.76 1022.46 1022.12 1021.73 1021.29 1020.79 1020.20
1029.63 1028.80 1027.95 1027.18 1026.55 1026.07 1025.72 1025.47 1025.26 1025.06 1024.85 1024.64 1024.44 1024.27 1024.17 1024.15 1024.18 1024.26 1024.33 1024.36 1024.32 1024.20 1023.98 1023.71 1023.40 1023.12 1022.90 1022.75 1022.68 1022.68 1022.72 1022.76 1022.78 1022.75 1022.64 1022.48 1022.25 1021.97 1021.65 1021.28 1020.86 1020.37 1019.79
1030.71 1030.02 1029.31 1028.67 1028.14 1027.72 1027.39 1027.11 1026.83 1026.52 1026.17 1025.80 1025.43 1025.09 1024.83 1024.64 1024.54 1024.50 1024.49 1024.46 1024.39 1024.24 1024.03 1023.75 1023.45 1023.15 1022.89 1022.69 1022.55 1022.46 1022.40 1022.35 1022.28 1022.17 1022.02 1021.82 1021.60 1021.34 1021.05 1020.73 1020.35 1019.90 1019.36
1031.48 1030.95 1030.40 1029.90 1029.46 1029.10 1028.78 1028.45 1028.08 1027.66 1027.17 1026.65 1026.13 1025.65 1025.24 1024.94 1024.74 1024.62 1024.55 1024.49 1024.40 1024.26 1024.06 1023.80 1023.51 1023.21 1022.93 1022.68 1022.46 1022.28 1022.12 1021.95 1021.77 1021.58 1021.36 1021.12 1020.88 1020.64 1020.40 1020.13 1019.82 1019.44 1018.95
1032.05 1031.67 1031.26 1030.87 1030.52 1030.18 1029.84 1029.44 1028.98 1028.43 1027.82 1027.17 1026.53 1025.94 1025.44 1025.06 1024.80 1024.63 1024.53 1024.45 1024.36 1024.24 1024.05 1023.82 1023.54 1023.25 1022.95 1022.66 1022.39 1022.12 1021.85 1021.58 1021.30 1021.00 1020.71 1020.44 1020.18 1019.95 1019.75 1019.54 1019.30 1018.99 1018.58
1032.53 1032.26 1031.96 1031.65 1031.33 1030.98 1030.58 1030.11 1029.54 1028.88 1028.15 1027.40 1026.68 1026.02 1025.48 1025.06 1024.76 1024.58 1024.46 1024.38 1024.29 1024.16 1023.99 1023.77 1023.51 1023.22 1022.91 1022.59 1022.27 1021.93 1021.59 1021.23 1020.85 1020.48 1020.12 1019.80 1019.53 1019.32 1019.14 1018.99 1018.81 1018.57 1018.23
1033.00 1032.80 1032.56 1032.28 1031.95 1031.56 1031.08 1030.51 1029.83 1029.07 1028.26 1027.45 1026.69 1026.01 1025.45 1025.03 1024.73 1024.54 1024.41 1024.30 1024.20 1024.06 1023.88 1023.64 1023.38 1023.08 1022.76 1022.42 1022.07 1021.69 1021.29 1020.87 1020.44 1020.00 1019.60 1019.25 1018.96 1018.75 1018.60 1018.48 1018.35 1018.16 1017.87
1033.50 1033.32 1033.09 1032.80 1032.43 1031.97 1031.40 1030.73 1029.97 1029.13 1028.27 1027.44 1026.67 1026.00 1025.47 1025.06 1024.77 1024.57 1024.41 1024.28 1024.12 1023.94 1023.71 1023.44 1023.14 1022.82 1022.49 1022.14 1021.77 1021.38 1020.95 1020.50 1020.04 1019.57 1019.14 1018.77 1018.47 1018.26 1018.12 1018.01 1017.91 1017.74 1017.48
1034.02 1033.82 1033.56 1033.22 1032.80 1032.27 1031.62 1030.87 1030.04 1029.16 1028.29 1027.46 1026.72 1026.10 1025.60 1025.22 1024.94 1024.72 1024.52 1024.32 1024.09 1023.83 1023.52 1023.19 1022.84 1022.48 1022.12 1021.76 1021.39 1021.00 1020.58 1020.13 1019.66 1019.19 1018.76 1018.37 1018.06 1017.84 1017.69 1017.59 1017.48 1017.33 1017.08
1034.49 1034.25 1033.95 1033.56 1033.08 1032.48 1031.77 1030.97 1030.11 1029.22 1028.36 1027.58 1026.89 1026.32 1025.87 1025.52 1025.24 1024.99 1024.74 1024.46 1024.13 1023.76 1023.36 1022.94 1022.51 1022.11 1021.72 1021.34 1020.98 1020.60 1020.20 1019.77 1019.32 1018.87 1018.44 1018.06 1017.74 1017.50 1017.33 1017.21 1017.09 1016.92 1016.67
1034.87 1034.57 1034.23 1033.80 1033.27 1032.63 1031.89 1031.07 1030.20 1029.34 1028.52 1027.80 1027.17 1026.66 1026.26 1025.93 1025.64 1025.35 1025.04 1024.67 1024.24 1023.76 1023.25 1022.73 1022.23 1021.76 1021.33 1020.95 1020.59 1020.23 1019.86 1019.47 1019.06 1018.64 1018.22 1017.84 1017.51 1017.25 1017.06 1016.90 1016.76 1016.57 1016.31
1035.10 1034.77 1034.39 1033.93 1033.38 1032.72 1031.98 1031.16 1030.33 1029.51 1028.75 1028.08 1027.51 1027.05 1026.68 1026.37 1026.07 1025.75 1025.37 1024.92 1024.40 1023.82 1023.21 1022.60 1022.02 1021.50 1021.04 1020.64 1020.29 1019.96 1019.62 1019.27 1018.89 1018.50 1018.10 1017.73 1017.40 1017.11 1016.88 1016.69 1016.51 1016.30 1016.04
1035.20 1034.84 1034.44 1033.97 1033.42 1032.78 1032.05 1031.27 1030.47 1029.70 1028.99 1028.36 1027.85 1027.43 1027.08 1026.77 1026.45 1026.10 1025.67 1025.16 1024.57 1023.92 1023.24 1022.57 1021.94 1021.37 1020.89 1020.47 1020.12 1019.80 1019.50 1019.18 1018.84 1018.48 1018.11 1017.74 1017.40 1017.09 1016.84 1016.61 1016.39 1016.17 1015.89
1035.20 1034.83 1034.43 1033.98 1033.45 1032.83 1032.14 1031.39 1030.63 1029.90 1029.22 1028.63 1028.13 1027.72 1027.37 1027.06 1026.73 1026.35 1025.90 1025.36 1024.73 1024.05 1023.33 1022.63 1021.97 1021.38 1020.87 1020.45 1020.10 1019.80 1019.51 1019.23 1018.92 1018.59 1018.24 1017.88 1017.53 1017.21 1016.93 1016.67 1016.43 1016.18 1015.90
1035.18 1034.81 1034.43 1034.00 1033.51 1032.92 1032.27 1031.55 1030.82 1030.10 1029.44 1028.85 1028.34 1027.92 1027.55 1027.21 1026.87 1026.48 1026.02 1025.48 1024.86 1024.18 1023.47 1022.76 1022.10 1021.50 1020.99 1020.57 1020.22 1019.92 1019.65 1019.39 1019.11 1018.81 1018.48 1018.14 1017.80 1017.47 1017.16 1016.88 1016.61 1016.35 1016.08
1035.20 1034.86 1034.50 1034.11 1033.64 1033.09 1032.47 1031.78 1031.06 1030.34 1029.66 1029.04 1028.50 1028.03 1027.63 1027.27 1026.90 1026.51 1026.06 1025.55 1024.96 1024.32 1023.64 1022.96 1022.32 1021.73 1021.22 1020.79 1020.44 1020.15 1019.89 1019.65 1019.40 1019.13 1018.84 1018.52 1018.20 1017.87 1017.55 1017.25 1016.96 1016.68 1016.41
1035.33 1035.01 1034.68 1034.32 1033.88 1033.36 1032.76 1032.08 1031.36 1030.62 1029.91 1029.25 1028.65 1028.13 1027.68 1027.28 1026.90 1026.51 1026.08 1025.60 1025.07 1024.48 1023.85 1023.22 1022.61 1022.04 1021.54 1021.11 1020.76 1020.46 1020.22 1020.00 1019.78 1019.54 1019.28 1019.00 1018.70 1018.39 1018.07 1017.76 1017.46 1017.17 1016.89
1035.57 1035.28 1034.97 1034.64 1034.22 1033.73 1033.14 1032.47 1031.74 1030.98 1030.23 1029.52 1028.86 1028.28 1027.78 1027.34 1026.94 1026.55 1026.15 1025.72 1025.24 1024.71 1024.14 1023.56 1022.98 1022.43 1021.94 1021.51 1021.15 1020.85 1020.62 1020.41 1020.22 1020.03 1019.81 1019.57 1019.31 1019.02 1018.71 1018.40 1018.09 1017.79 1017.50
1035.92 1035.64 1035.35 1035.02 1034.63 1034.15 1033.58 1032.92 1032.19 1031.41 1030.64 1029.88 1029.18 1028.56 1028.01 1027.54 1027.12 1026.74 1026.36 1025.97 1025.54 1025.06 1024.55 1024.01 1023.46 1022.92 1022.43 1022.00 1021.63 1021.33 1021.09 1020.90 1020.74 1020.59 1020.42 1020.23 1020.01 1019.75 1019.47 1019.16 1018.84 1018.53 1018.23
Thickness
5573 5569 5565 5561 5557 5553 5550 5546 5542 5539 5537 5535 5532 5530 5528 5527 5526 5525 5524 5524 5523 5522 5522 5522 5521 5520 5518 5517 5516 5515 5513 5512 5513 5514 5515 5518 5522 5524 5525 5526 5528 5530 5532
5562 5559 5555 5550 5546 5544 5541 5537 5533 5530 5527 5526 5523 5521 5518 5516 5515 5513 5512 5512 5511 5510 5510 5509 5508 5507 5505 5503 5502 5500 5498 5498 5499 5498 5499 5501 5505 5508 5510 5512 5514 5516 5518
5552 5548 5544 5539 5536 5534 5532 5529 5524 5520 5517 5515 5512 5509 5507 5505 5502 5500 5500 5499 5499 5498 5497 5496 5495 5494 5492 5490 5488 5486 5485 5483 5484 5484 5484 5484 5486 5487 5493 5497 5499 5501 5503
5542 5537 5533 5529 5526 5523 5520 5518 5514 5510 5507 5504 5502 5500 5497 5494 5492 5490 5487 5487 5486 5485 5484 5483 5482 5481 5479 5477 5475 5473 5472 5471 5469 5469 5470 5470 5470 5470 5474 5480 5483 5485 5487
5530 5526 5522 5518 5515 5511 5508 5505 5503 5499 5496 5493 5491 5489 5486 5483 5481 5478 5476 5474 5473 5472 5471 5470 5469 5468 5466 5464 5462 5460 5459 5457 5456 5455 5455 5455 5456 5457 5457 5462 5466 5468 5471
5518 5514 5510 5505 5502 5498 5495 5493 5491 5488 5485 5482 5479 5477 5475 5472 5469 5467 5464 5463 5461 5460 5460 5458 5456 5455 5453 5451 5449 5447 5446 5444 5443 5442 5441 5441 5441 5442 5443 5445 5447 5451 5456
5505 5500 5496 5492 5489 5486 5483 5481 5479 5476 5474 5471 5468 5466 5464 5462 5459 5457 5455 5453 5450 5448 5447 5446 5444 5442 5440 5438 5436 5434 5433 5431 5430 5429 5428 5429 5429 5430 5430 5431 5433 5436 5440
5491 5487 5484 5480 5477 5474 5471 5468 5466 5464 5461 5459 5457 5455 5453 5451 5449 5447 5445 5442 5440 5438 5436 5434 5431 5429 5427 5425 5423 5421 5420 5419 5417 5417 5416 5415 5416 5416 5417 5418 5418 5419 5424
5477 5474 5471 5468 5464 5462 5459 5457 5454 5452 5450 5447 5445 5443 5442 5440 5438 5436 5433 5431 5428 5426 5424 5421 5419 5416 5414 5412 5410 5409 5407 5406 5405 5404 5403 5402 5403 5403 5404 5405 5405 5404 5406
5462 5459 5457 5454 5451 5449 5447 5445 5442 5440 5438 5435 5433 5431 5429 5428 5426 5423 5421 5418 5416 5414 5411 5408 5406 5404 5401 5399 5398 5396 5395 5393 5392 5391 5390 5389 5389 5390 5390 5390 5390 5390 5391
5448 5445 5443 5440 5438 5436 5434 5432 5429 5427 5424 5422 5420 5419 5417 5415 5413 5410 5408 5406 5404 5401 5399 5396 5394 5392 5389 5387 5385 5384 5382 5380 5379 5378 5377 5377 5376 5376 5376 5376 5377 5376 5376
5434 5431 5428 5426 5424 5422 5420 5418 5416 5413 5412 5410 5407 5406 5404 5402 5400 5397 5395 5393 5391 5389 5386 5384 5381 5379 5377 5375 5373 5371 5370 5368 5367 5365 5364 5364 5363 5363 5363 5362 5363 5363 5362
5420 5417 5414 5411 5409 5407 5406 5404 5402 5400 5398 5396 5394 5392 5391 5389 5386 5384 5382 5380 5378 5376 5373 5371 5369 5367 5365 5363 5361 5359 5358 5356 5354 5353 5352 5351 5351 5351 5350 5349 5349 5349 5350
5404 5402 5399 5396 5394 5393 5391 5390 5388 5386 5384 5382 5381 5379 5377 5375 5373 5371 5369 5367 5365 5363 5361 5359 5357 5355 5353 5351 5350 5348 5346 5344 5343 5341 5341 5340 5339 5339 5338 5337 5337 5336 5336
5389 5387 5384 5382 5379 5378 5376 5374 5373 5371 5369 5368 5366 5365 5364 5362 5360 5358 5356 5354 5353 5351 5349 5348 5345 5344 5342 5341 5339 5337 5335 5333 5332 5331 5330 5329 5328 5328 5327 5327 5326 5325 5324
5371 5370 5369 5368 5366 5363 5362 5361 5358 5357 5356 5354 5352 5351 5350 5348 5347 5345 5343 5341 5340 5339 5337 5336 5334 5332 5332 5331 5330 5328 5325 5323 5322 5320 5319 5318 5317 5317 5316 5316 5315 5315 5313
5355 5354 5353 5352 5351 5349 5348 5347 5345 5343 5341 5340 5339 5338 5337 5335 5334 5333 5331 5329 5328 5327 5325 5324 5322 5321 5320 5320 5319 5318 5315 5313 5311 5310 5308 5308 5307 5305 5304 5304 5304 5303 5303
5340 5339 5338 5338 5337 5336 5335 5333 5331 5330 5328 5327 5326 5325 5324 5323 5322 5320 5319 5317 5317 5316 5314 5313 5311 5310 5310 5309 5309 5308 5305 5303 5301 5299 5298 5296 5295 5294 5293 5293 5292 5292 5291
5325 5324 5325 5325 5325 5324 5322 5320 5318 5317 5316 5315 5314 5313 5312 5311 5310 5309 5307 5306 5305 5304 5303 5302 5301 5299 5299 5299 5299 5298 5294 5293 5291 5289 5288 5287 5286 5285 5284 5283 5282 5282 5281
5312 5311 5311 5312 5311 5310 5309 5307 5306 5305 5304 5303 5302 5301 5300 5300 5299 5298 5296 5295 5294 5293 5292 5291 5290 5289 5289 5289 5290 5288 5285 5283 5281 5280 5278 5277 5277 5276 5276 5274 5272 5271 5271
5299 5299 5299 5298 5298 5297 5296 5295 5294 5293 5292 5291 5290 5289 5289 5288 5288 5287 5285 5283 5283 5282 5281 5280 5280 5279 5279 5279 5279 5278 5276 5273 5272 5271 5269 5268 5268 5268 5267 5266 5264 5263 5262
5287 5286 5286 5285 5285 5285 5284 5283 5282 5282 5281 5280 5280 5279 5278 5278 5277 5276 5274 5273 5272 5271 5271 5270 5269 5269 5269 5269 5269 5269 5267 5265 5263 5262 5261 5259 5259 5259 5259 5257 5256 5255 5253
5275 5274 5273 5274 5273 5272 5272 5271 5271 5270 5270 5269 5269 5268 5267 5267 5267 5265 5264 5263 5262 5262 5262 5261 5261 5260 5259 5258 5259 5259 5258 5256 5255 5253 5252 5251 5251 5250 5249 5248 5247 5246 5243
5262 5262 5262 5262 5261 5260 5260 5259 5260 5259 5258 5258 5258 5257 5257 5257 5257 5256 5256 5255 5254 5253 5253 5253 5252 5251 5250 5249 5249 5248 5247 5246 5245 5244 5243 5243 5242 5241 5240 5239 5237 5236 5235
5250 5250 5249 5249 5249 5249 5249 5249 5248 5248 5247 5247 5247 5247 5247 5246 5246 5247 5247 5247 5247 5246 5246 5245 5244 5243 5242 5242 5242 5240 5239 5238 5237 5236 5234 5233 5232 5231 5230 5229 5228 5227 5226
5238 5238 5238 5237 5237 5237 5237 5237 5237 5237 5237 5237 5237 5236 5236 5237 5237 5237 5237 5238 5238 5239 5239 5238 5238 5237 5236 5236 5235 5234 5233 5232 5230 5228 5226 5224 5223 5222 5221 5220 5220 5219 5218